Location: Kuppenheim
(48.8299°N, 8.2568°E)
Time: 16:34:13
(UTC+00:00)

BREEZE-M DEB (TANK) - Pass Details

Date: 20 June 2021
Orbit: 333 x 16573 km, 49.3° (Epoch: 30 July)

Event Time Altitude Azimuth Distance (km) Brightness Sun altitude
Rises 02:00:10 0° 281° (W) 2,605 5.5 -10.2°
Reaches altitude 10° 02:02:28 10° 280° (W) 1,385 4.1 -10.0°
Maximum altitude 02:04:56 77° 193° (SSW) 348 1.2 -9.8°
Drops below altitude 10° 02:07:31 10° 107° (ESE) 1,459 4.7 -9.5°
Sets 02:10:01 0° 106° (ESE) 2,782 6.2 -9.3°
